Weather History for Big Rapids, MI

Change the Weather History Date:

Tuesday, May 13, 2014

  Actual Average Record
Temperature  
Mean Temperature 60 °F -  
Max Temperature 69 °F 67 °F 89 °F (1991)
Min Temperature 52 °F 41 °F 27 °F (2013)
Degree Days  
Heating Degree Days 4    
Growing Degree Days 10 (Base 50)    
Moisture  
Dew Point 62 °F    
Average Humidity 98    
Maximum Humidity 100    
Minimum Humidity 86    
Precipitation  
Precipitation 0.02 in - - ()
Sea Level Pressure  
Sea Level Pressure 29.91 in    
Wind  
Wind Speed 8 mph (WSW)    
Max Wind Speed 22 mph    
Max Gust Speed 37 mph    
Visibility 9 miles    
Events Rain    
Averages and records for this station are not official NWS values.
T = Trace of Precipitation, MM = Missing Value Source: NWS Daily Summary

Daily Weather History Graph

Daily Weather History Graph

Search for Another Location

Airport:

Trip Planner

Search our weather history database for the weather conditions in past years. The results will help you decide how hot, cold, wet, or windy it might be!

Date:

Astronomy

May. 13, 2014 Rise Set
Actual Time 6:18 AM EDT 8:58 PM EDT
Civil Twilight 5:46 AM EDT 9:31 PM EDT
Nautical Twilight 5:04 AM EDT 10:13 PM EDT
Astronomical Twilight 4:17 AM EDT 11:00 PM EDT
Moon 7:56 PM EDT (5/13) 5:38 AM EDT (5/13)
Length of Visible Light 15h 45m
Length of Day
14h 39m
Waxing Gibbous, 98% of the Moon is Illuminated
May 13
Waxing Gibbous
May 14
Full
May 21
Last Quarter
May 28
New
Jun 5
First Quarter

Hourly Weather History & Observations

Time (EDT) Temp. Dew Point Humidity Pressure Visibility Wind Dir Wind Speed Gust Speed Precip Events Conditions
12:14 AM 67.3 °F 67.3 °F 100% 29.89 in 10.0 mi SE 5.8 mph - N/A   Mostly Cloudy
12:34 AM 67.6 °F 67.6 °F 100% 29.88 in 10.0 mi SSE 8.1 mph - N/A   Overcast
12:55 AM 67.5 °F 67.5 °F 100% 29.88 in 10.0 mi SE 5.8 mph - N/A   Scattered Clouds
1:14 AM 67.3 °F 67.3 °F 100% 29.89 in 7.0 mi SSE 4.6 mph - N/A   Scattered Clouds
1:35 AM 67.6 °F 67.6 °F 100% 29.88 in 7.0 mi SSE 8.1 mph - N/A   Scattered Clouds
2:14 AM 67.1 °F 67.1 °F 100% 29.86 in 7.0 mi South 6.9 mph - N/A   Scattered Clouds
2:35 AM 69.3 °F 69.3 °F 100% 29.86 in 10.0 mi South 8.1 mph - N/A   Scattered Clouds
2:54 AM 69.8 °F 69.8 °F 100% 29.85 in 10.0 mi SW 5.8 mph - N/A   Mostly Cloudy
3:35 AM 68.5 °F 68.5 °F 100% 29.83 in 10.0 mi WSW 3.5 mph - N/A   Mostly Cloudy
3:54 AM 68.0 °F 68.0 °F 100% 29.81 in 10.0 mi SE 4.6 mph - N/A   Scattered Clouds
4:15 AM 67.8 °F 67.8 °F 100% 29.81 in 10.0 mi SSE 5.8 mph - N/A   Overcast
4:35 AM 67.3 °F 67.3 °F 100% 29.80 in 7.0 mi SSE 4.6 mph - N/A   Overcast
4:54 AM 67.1 °F 67.1 °F 100% 29.80 in 7.0 mi SSE 5.8 mph - N/A   Overcast
5:15 AM 67.5 °F 67.5 °F 100% 29.79 in 7.0 mi South 5.8 mph - N/A   Overcast
5:34 AM 68.0 °F 68.0 °F 100% 29.77 in 7.0 mi SE 9.2 mph - N/A   Overcast
5:54 AM 68.2 °F 68.2 °F 100% 29.77 in 7.0 mi SE 8.1 mph - N/A   Mostly Cloudy
6:15 AM 68.0 °F 68.0 °F 100% 29.80 in 5.0 mi SW 4.6 mph - N/A   Scattered Clouds
6:34 AM 68.0 °F 68.0 °F 100% 29.81 in 5.0 mi South 6.9 mph - N/A   Clear
6:54 AM 68.4 °F 68.4 °F 100% 29.84 in 10.0 mi SW 15.0 mph 20.7 mph N/A   Scattered Clouds
7:14 AM 68.2 °F 66.7 °F 95% 29.85 in 10.0 mi SW 21.9 mph 36.8 mph N/A   Mostly Cloudy
7:34 AM 66.7 °F 66.2 °F 98% 29.86 in 10.0 mi SW 18.4 mph 31.1 mph N/A   Overcast
7:55 AM 65.8 °F 65.8 °F 100% 29.88 in 10.0 mi SW 13.8 mph 24.2 mph N/A   Overcast
8:14 AM 65.8 °F 65.3 °F 98% 29.88 in 10.0 mi WSW 15.0 mph 24.2 mph N/A   Overcast
9:14 AM 63.9 °F 63.9 °F 100% 29.86 in 10.0 mi NNW 4.6 mph - N/A Rain Light Rain
9:34 AM 64.0 °F 64.0 °F 100% 29.85 in 10.0 mi North 5.8 mph - N/A Rain Light Rain
9:55 AM 65.3 °F 65.3 °F 100% 29.88 in 10.0 mi WSW 12.7 mph 19.6 mph N/A   Mostly Cloudy
10:14 AM 63.9 °F 63.9 °F 100% 29.89 in 10.0 mi WSW 12.7 mph 21.9 mph N/A   Overcast
10:54 AM 64.6 °F 64.6 °F 100% 29.89 in 10.0 mi SW 9.2 mph - N/A   Overcast
12:35 PM 64.6 °F 64.6 °F 100% 29.91 in 2.0 mi SW 6.9 mph - N/A   Overcast
12:54 PM 64.8 °F 64.8 °F 100% 29.90 in 5.0 mi SW 6.9 mph - N/A   Light Drizzle
1:35 PM 65.8 °F 65.8 °F 100% 29.89 in 4.0 mi WSW 10.4 mph - N/A Rain Rain
1:54 PM 65.8 °F 65.8 °F 100% 29.90 in 10.0 mi SW 10.4 mph 17.3 mph N/A   Overcast
2:15 PM 65.3 °F 65.3 °F 100% 29.91 in 10.0 mi WSW 13.8 mph 18.4 mph N/A   Overcast
2:35 PM 64.9 °F 64.9 °F 100% 29.91 in 10.0 mi WSW 10.4 mph 16.1 mph N/A   Overcast
2:54 PM 65.5 °F 64.9 °F 98% 29.91 in 10.0 mi WSW 10.4 mph - N/A   Overcast
3:15 PM 64.9 °F 64.2 °F 98% 29.91 in 10.0 mi West 12.7 mph 18.4 mph N/A   Overcast
3:35 PM 63.3 °F 63.3 °F 100% 29.91 in 5.0 mi West 12.7 mph 20.7 mph N/A   Overcast
3:54 PM 63.0 °F 63.0 °F 100% 29.91 in 5.0 mi West 9.2 mph 16.1 mph N/A   Overcast
4:15 PM 62.1 °F 62.1 °F 100% 29.92 in 5.0 mi WNW 9.2 mph 18.4 mph N/A   Overcast
4:35 PM 61.5 °F 61.5 °F 100% 29.92 in 10.0 mi NW 5.8 mph - N/A   Overcast
4:54 PM 59.4 °F 59.4 °F 100% 29.93 in 10.0 mi NW 9.2 mph - N/A   Overcast
5:15 PM 59.0 °F 58.8 °F 99% 29.93 in 10.0 mi WNW 9.2 mph - N/A   Overcast
5:35 PM 58.1 °F 58.1 °F 100% 29.94 in 10.0 mi NW 8.1 mph - N/A   Overcast
5:54 PM 57.2 °F 57.2 °F 100% 29.96 in 10.0 mi WNW 10.4 mph - N/A   Overcast
6:15 PM 56.8 °F 56.7 °F 99% 29.97 in 10.0 mi NW 8.1 mph - N/A   Overcast
6:35 PM 57.2 °F 56.1 °F 96% 29.98 in 10.0 mi West 8.1 mph - N/A   Overcast
6:54 PM 57.2 °F 54.7 °F 91% 29.98 in 10.0 mi WNW 6.9 mph - N/A   Overcast
7:15 PM 56.7 °F 54.5 °F 92% 29.98 in 10.0 mi West 8.1 mph - N/A   Overcast
7:34 PM 56.5 °F 54.7 °F 94% 29.98 in 10.0 mi West 8.1 mph - N/A   Overcast
8:15 PM 55.4 °F 54.3 °F 96% 30.00 in 10.0 mi WNW 10.4 mph - N/A   Light Drizzle
8:34 PM 55.4 °F 54.5 °F 97% 30.00 in 10.0 mi West 6.9 mph - N/A   Overcast
8:55 PM 55.0 °F 54.1 °F 97% 30.01 in 10.0 mi West 8.1 mph - N/A   Overcast
9:15 PM 54.9 °F 53.4 °F 95% 30.01 in 10.0 mi West 8.1 mph - N/A   Overcast
9:34 PM 54.7 °F 52.3 °F 92% 30.03 in 10.0 mi WNW 10.4 mph - N/A   Overcast
9:55 PM 54.5 °F 52.0 °F 91% 30.04 in 10.0 mi West 10.4 mph - N/A   Overcast
10:15 PM 54.0 °F 51.8 °F 92% 30.05 in 10.0 mi West 6.9 mph - N/A   Overcast
10:55 PM 53.6 °F 50.7 °F 90% 30.06 in 10.0 mi West 5.8 mph - N/A   Mostly Cloudy
11:14 PM 53.1 °F 48.9 °F 86% 30.06 in 10.0 mi West 8.1 mph - N/A   Mostly Cloudy
11:35 PM 52.9 °F 49.1 °F 87% 30.07 in 10.0 mi West 6.9 mph - N/A   Overcast
11:55 PM 52.7 °F 48.6 °F 86% 30.08 in 10.0 mi West 5.8 mph - N/A   Overcast